Regional Weather Roundup
Issued by NWS Mobile, AL

Home | Current Version | Previous Version | Text Only | Print | Product List | Glossary On
Versions: 1 2 3 4 5 6 7 8 9 10 11 12 13 14 15 16 17 18 19 20 21 22 23 24 25 26 27 28 29 30 31 32 33 34 35 36 37 38 39 40 41 42 43 44 45 46 47 48 49 50
000
ASUS44 KMOB 020212
RWRMOB
REGIONAL WEATHER ROUNDUP
NATIONAL WEATHER SERVICE MOBILE AL
900 PM CDT SUN MAY 01 2016

NOTE: "FAIR" INDICATES FEW OR NO CLOUDS BELOW 12,000 FEET WITH NO
      SIGNIFICANT WEATHER AND/OR OBSTRUCTIONS TO VISIBILITY.

  * THESE STATIONS ARE PART OF THE UNIVERSITY OF SOUTH ALABAMA
    MESONET AND ARE NOT UNDER NWS OR FAA QUALITY CONTROL.

ALZ061>064-020300-
COASTAL ALABAMA

CITY           SKY/WX    TMP DP  RH WIND       PRES   REMARKS
MOBILE REG APT CLOUDY    71  71 100 SE3       29.97R
BROOKLEY FIELD CLOUDY    76  73  91 SE9       29.98R
USA CAMPUS*    NOT AVBL
DOG RIVER*     NOT AVBL


CITY           SKY/WX    TMP DP  RH WIND       PRES   REMARKS
MOUNT VERNON*  NOT AVBL
SARALAND*      NOT AVBL
BAY MINETTE*   NOT AVBL
LOXLEY*        NOT AVBL
ROBERTSDALE*   NOT AVBL
FAIRHOPE*      NOT AVBL
ELBERTA*       NOT AVBL
FOLEY*         NOT AVBL
GRAND BAY*     NOT AVBL
DAUPHIN ISLND* NOT AVBL
BON SCOUR NWR* NOT AVBL
GULF SHORES    CLOUDY    75  74  95 S13G22    29.95R

$$

ALZ051>060-020300-
INTERIOR SOUTHWEST AND SOUTH CENTRAL ALABAMA

CITY           SKY/WX    TMP DP  RH WIND       PRES   REMARKS
GREENVILLE     CLOUDY    70  65  84 CALM      30.01S
EVERGREEN      CLOUDY    71  69  93 NE7       30.00S
CASTLEBERRY*   NOT AVBL
ATMORE*        NOT AVBL
DIXIE*         NOT AVBL
ANDALUSIA/OPP  CLOUDY    75  68  78 CALM      30.01R
ANDALUSIA*     NOT AVBL
FLORALA APT    CLOUDY    73  69  87 CALM      30.03R
FLORALA*       NOT AVBL

$$

FLZ001>006-020300-
WESTERN FLORIDA PANHANDLE

CITY           SKY/WX    TMP DP  RH WIND       PRES   REMARKS
PENSACOLA      MOCLDY    76  72  87 SE13G22   29.95F
NAS PENSACOLA  NOT AVBL
MILTON         MOCLDY    74  73  97 SE12      29.97S
WHTNG S FIELD  CLOUDY    77  73  87 SE12      29.97S


CITY           SKY/WX    TMP DP  RH WIND       PRES   REMARKS
WALNUT HILL*   NOT AVBL
JAY*           NOT AVBL
DUKE FIELD     CLOUDY    74  71  89 SE2       30.00R
CRESTVIEW      PTCLDY    75  71  87 SE3       30.02R
VALPARAISO     MOCLDY    75  71  87 S6        30.00R
DESTIN         MOCLDY    78  75  90 S8        29.99S

$$

MSZ076-079-020300-
INTERIOR SOUTHEAST MISSISSIPPI

CITY           SKY/WX    TMP DP  RH WIND       PRES   REMARKS
LEAKESVILLE*   NOT AVBL
AGRICOLA*      NOT AVBL

$$

MARINE OBSERVATIONS

STATION/POSITION TIME  TEMP    WIND        PRES    WAVE
                       AIR SEA DIR/SP/G            HT/PER
                 (UTC) (F)     (DEG/KT/KT) (MB)    (FT/S)
PASCAGOULA       0100   76                 1012.4F
PETIT BOIS ISLND 0100   77                 1014.2
GRAND BAY        0000   77     160/ 15     1015.0F
KATRINA CUT      0100   76     150/ 17       N/A
CEDAR POINT      0100   76     160/ 16     1013.2F
E DAUPHIN ISLAND 0100   76     140/ 18/ 20 1013.2F
MIDDLE BAY LIGHT 0100   77     140/ 19     1013.9R
USCG MOBILE BAY  0100   76 76              1014.5
STATE DOCKS      0100   77 74              1014.1
MEAHER PARK      0100   76     340/  4     1013.2R
WEEKS BAY        0000   76                   N/A
FORT MORGAN      0100   76                 1013.0F
12 S ORANGE BCH  0150   76 75  130/ 17/ 21 1012.7F   4/ 7
PENSACOLA BAY    0100   85 70              1015.0
64 S DAUPHIN ISL 0100   76 76   60/  8/ 10 1015.1R

$$

SELECTED LOCATIONS ACROSS THE REGION

CITY           SKY/WX    TMP DP  RH WIND       PRES   REMARKS
NEW ORLEANS    MOCLDY    73  63  70 SE12      29.88F
GULFPORT       MOCLDY    74  60  61 N5        29.92R
PASCAGOULA AP  CLOUDY    75  72  90 SE21      29.91S
PASCAGOULA*    NOT AVBL
HATTIESBURG    CLOUDY    69  66  90 E3        29.95R
LAUREL         CLOUDY    66  63  88 E3        29.96R
MERIDIAN       CLOUDY    70  68  93 CALM      29.98R
JACKSON        CLOUDY    70  65  84 SE7       29.94R
MONTGOMERY     MOCLDY    70  66  87 CALM      30.00F
TROY           CLOUDY    69  67  93 CALM      30.02S
KINSTON*       NOT AVBL
GENEVA*        NOT AVBL
ASHFORD*       NOT AVBL
DOTHAN         CLOUDY    76  69  79 CALM      30.06R
PANAMA CITY    MOCLDY    75  71  87 CALM      30.00S

$$




USA.gov is the U.S. government's official web portal to all federal, state and local government web resources and services.